Hourly Weather Roundup
Issued by NWS Central Illinois

Home | Current Version | Previous Version | Graphics & Text | Print | Product List | Glossary On
Versions: 1 2 3 4 5 6 7 8 9 10 11 12 13 14 15 16 17 18 19 20 21 22 23 24 25 26 27 28 29 30 31 32 33 34 35 36 37 38 39 40 41 42 43 44 45 46 47 48 49 50
000
NZUS43 KILX 271910
HWRILX

AREA WEATHER ROUNDUP
NATIONAL WEATHER SERVICE, LINCOLN IL
200 PM CDT MON APR 27 2015


CITY           SKY/WX    TMP DP  RH WIND       PRES   REMARKS
BLOOMINGTON    MOSUNNY   60  39  45 N15G23    30.12F
CHAMPAIGN      MOSUNNY   60  37  42 N21G26    30.09F
DANVILLE       MOSUNNY   56  37  49 N22G30    30.06S
DECATUR        MOSUNNY   62  40  44 N16G24    30.10F
EFFINGHAM      SUNNY     61  35  37 N12G21    30.08F
FLORA          SUNNY     61  40  46 N18       30.06F
GALESBURG      SUNNY     61  39  43 N8G16     30.13F
JACKSONVILLE   SUNNY     65  36  33 N14G22    30.10F
LACON          SUNNY     60  37  41 N7        30.12F
LAWRENCEVILLE  SUNNY     62  39  42 N21       30.04F
LITCHFIELD     SUNNY     61  37  40 N18G25    30.08F
$$


CITY           SKY/WX    TMP DP  RH WIND       PRES   REMARKS
LINCOLN        SUNNY     63  39  41 N13G20    30.10F
MACOMB         SUNNY     62  35  35 NE13G20   30.15F
MATTOON        PTSUNNY   59  38  45 N16       30.07F
MT CARMEL AP   SUNNY     63  36  36 N15G22    30.03F
OLNEY-NOBLE AP SUNNY     61  39  44 N13       30.05F
PARIS          PTSUNNY   58  40  51 N16G22    30.08S
PEORIA         SUNNY     63  36  36 N14G20    30.12F
PONTIAC        MOSUNNY   61  38  43 N16G24    30.13S
RANTOUL        MOSUNNY   60  38  44 N17G26    30.09F
ROBINSON       SUNNY     61  39  44 N18       30.05F
SPRINGFIELD    SUNNY     63  38  39 N9G22     30.11F
TAYLORVILLE    MOSUNNY   61  37  41 N17G25    30.09F
$$

...REGIONAL REPORTS...


CITY           SKY/WX    TMP DP  RH WIND       PRES   REMARKS
CHICAGO O`HARE MOSUNNY   54  35  48 NE15      30.10F
KANKAKEE       MOSUNNY   55  36  49 N15G24    30.12R
MOLINE         SUNNY     64  36  35 N9        30.13F
MOUNT VERNON   MOSUNNY   63  39  42 NE9G17    30.06S
PITTSFIELD     SUNNY     64  34  32 N9G18     30.11F
QUINCY         SUNNY     63  37  38 N8G21     30.11F
ROCKFORD       MOSUNNY   62  33  33 VRB6      30.13F
$$


CITY           SKY/WX    TMP DP  RH WIND       PRES   REMARKS
BURLINGTON     SUNNY     63  37  38 NE8       30.13F
CEDAR RAPIDS   SUNNY     62  36  37 N10       30.15F
DES MOINES     MOSUNNY   66  30  26 N7        30.16F
KIRKSVILLE     SUNNY     66  36  32 N14G23    30.12F
OTTUMWA        SUNNY     62  35  36 E7        30.15F
ST LOUIS       MOSUNNY   64  36  35 N10G22    30.09F
$$


CITY           SKY/WX    TMP DP  RH WIND       PRES   REMARKS
TERRE HAUTE    PTSUNNY   59  40  49 NW15      30.05F
EVANSVILLE     MOSUNNY   62  38  40 N10G21    30.02F
INDIANAPOLIS   PTSUNNY   55  36  48 N15       30.03S
LAFAYETTE      PTSUNNY   55  37  50 N20       30.07R
MADISON        MOSUNNY   63  32  31 N8        30.11F
MILWAUKEE      MOSUNNY   49  35  58 NE12      30.15R
$$





USA.gov is the U.S. government's official web portal to all federal, state and local government web resources and services.